Content
SEND FEEDBACK

Daily
Averages
Monthly
Summary
United States of America

GREENBELT, VIRGINIA


Home > North America > United States > Virginia
Elevation: 120 feet     Latitude: 39 02N     Longitude: 076 53W

WEATHER
 
SELECT A DAY
Number of Records: 180,409;   Date Range: 5/31/06 - 4/23/14
 
SHARE

PRINT THIS DATA

[ ← Previous Day ]
WEATHER ALMANAC - FEBRUARY 5, 2013
[ Next Day → ]
[ °C ]   °F
Weather ElementAverageHighLow
Temperature36.7 °F42.1 °F (3:45 pm)31.1 °F (2:55 am)
Dewpoint28.7 °F32 °F (11:55 pm)24.4 °F (12:50 am)
Humidity73.1 %87 % (10:30 pm)59 % (3:20 pm)
Barometer29.90 in29.95 in (11:10 pm)29.86 in (2:40 pm)
Wind Speed1.1 mph4.6 mph (9:00 am)
Weather ElementAverage
Visibility10 mi
Wind DirectionNNE (29.8 °)

Weather ElementTotal
Precipitation---
Heating Degree Days28.4 (Base 65)
Averaged from 59 records on February 5, 2013
WEATHER CONDITIONS BREAKOUT
WIND DIRECTION BREAKOUT
WEATHER BY HOUR - FEBRUARY 5, 2013
[ °C ]   °F
Local TimeTemperatureDewpointHumidityBarometerVisibilityWind DirectionWind SpeedGust SpeedPrecipitationEventsConditions
12:50 AM34.2 °F24.4 °F68 %29.90 in10.0 miCalmOvercast
1:10 AM33.1 °F24.4 °F71 %29.90 in10.0 miCalmMostly Cloudy
1:30 AM32.9 °F24.4 °F71 %29.89 in10.0 miCalmMostly Cloudy
1:55 AM31.8 °F25.3 °F77 %29.89 in10.0 miCalmScattered Clouds
2:15 AM31.6 °F26.1 °F80 %29.89 in10.0 miCalmMostly Cloudy
2:35 AM31.6 °F25.5 °F78 %29.89 in10.0 miCalmOvercast
2:55 AM31.1 °F26.6 °F83 %29.88 in10.0 miCalmMostly Cloudy
3:20 AM31.1 °F26.4 °F83 %29.88 in10.0 miCalmMostly Cloudy
4:00 AM31.6 °F26.4 °F81 %29.87 in10.0 miCalmOvercast
4:20 AM32.0 °F26.2 °F79 %29.87 in10.0 miCalmOvercast
4:45 AM31.6 °F26.6 °F82 %29.87 in10.0 miCalmScattered Clouds
6:10 AM33.4 °F26.4 °F75 %29.88 in10.0 miNorth (360°)3.5 mphOvercast
6:30 AM33.8 °F26.4 °F74 %29.89 in10.0 miNNE (30°)3.5 mphOvercast
6:50 AM34.0 °F26.4 °F74 %29.89 in10.0 miNorth (10°)3.5 mphOvercast
7:15 AM34.7 °F27.1 °F74 %29.91 in10.0 miCalmOvercast
7:55 AM35.1 °F28.8 °F78 %29.92 in10.0 miCalmOvercast
8:15 AM35.2 °F29.1 °F78 %29.91 in10.0 miCalmOvercast
8:40 AM35.6 °F29.7 °F79 %29.93 in10.0 miCalmMostly Cloudy
9:00 AM35.6 °F30.2 °F81 %29.93 in10.0 miNorth (10°)4.6 mphOvercast
9:20 AM36.0 °F30.4 °F80 %29.94 in10.0 miCalmOvercast
9:40 AM37.0 °F30.9 °F79 %29.94 in10.0 miNE (40°)4.6 mphOvercast
10:05 AM37.4 °F30.6 °F76 %29.94 in10.0 miNorth (350°)3.5 mphOvercast
10:25 AM37.4 °F30.2 °F75 %29.94 in10.0 miCalmOvercast
10:45 AM37.9 °F30.2 °F74 %29.94 in10.0 miCalmOvercast
11:05 AM38.5 °F30.2 °F72 %29.93 in10.0 miEast (90°)3.5 mphScattered Clouds
11:50 AM38.8 °F30.0 °F71 %29.93 in10.0 miCalmScattered Clouds
12:10 PM39.2 °F29.7 °F69 %29.92 in10.0 miNNE (20°)4.6 mphScattered Clouds
12:30 PM39.6 °F29.5 °F67 %29.91 in10.0 miCalmScattered Clouds
12:55 PM40.3 °F28.6 °F63 %29.90 in10.0 miEast (100°)3.5 mphOvercast
1:15 PM40.5 °F28.9 °F64 %29.89 in10.0 miCalmOvercast
1:55 PM41.5 °F29.1 °F61 %29.88 in10.0 miCalmScattered Clouds
2:20 PM41.7 °F28.8 °F60 %29.87 in10.0 miNNE (20°)4.6 mphClear
2:40 PM41.9 °F28.9 °F60 %29.86 in10.0 miENE (60°)3.5 mphClear
3:00 PM41.9 °F29.3 °F61 %29.87 in10.0 miNE (50°)3.5 mphScattered Clouds
3:20 PM41.9 °F28.6 °F59 %29.88 in10.0 miCalmScattered Clouds
3:45 PM42.1 °F29.3 °F61 %29.87 in10.0 miESE (110°)3.5 mphScattered Clouds
4:05 PM42.1 °F29.1 °F60 %29.88 in10.0 miCalmScattered Clouds
4:25 PM41.7 °F28.4 °F59 %29.87 in10.0 miCalmClear
4:45 PM41.2 °F28.6 °F61 %29.88 in10.0 miNNE (30°)3.5 mphClear
5:10 PM40.6 °F28.4 °F62 %29.88 in10.0 miNE (50°)3.5 mphClear
5:30 PM40.1 °F28.8 °F64 %29.88 in10.0 miEast (80°)3.5 mphClear
5:50 PM39.4 °F28.4 °F65 %29.89 in10.0 miCalmClear
6:10 PM38.7 °F28.4 °F67 %29.89 in10.0 miCalmClear
6:35 PM37.8 °F28.0 °F68 %29.89 in10.0 miCalmClear
6:55 PM37.4 °F27.3 °F67 %29.90 in10.0 miCalmClear
7:15 PM35.6 °F28.2 °F75 %29.91 in10.0 miCalmMostly Cloudy
7:40 PM36.9 °F28.4 °F71 %29.90 in10.0 miCalmOvercast
8:00 PM37.4 °F28.9 °F71 %29.90 in10.0 miCalmOvercast
8:20 PM36.9 °F30.2 °F77 %29.90 in10.0 miCalmOvercast
8:40 PM36.7 °F30.2 °F77 %29.91 in10.0 miCalmOvercast
9:05 PM36.0 °F30.6 °F81 %29.92 in10.0 miCalmOvercast
9:25 PM35.6 °F31.1 °F84 %29.92 in10.0 miCalmOvercast
9:45 PM35.8 °F30.4 °F81 %29.93 in10.0 miCalmOvercast
10:00 PM34.7 °F30.9 °F86 %29.94 in10.0 miCalmOvercast
10:30 PM35.2 °F31.8 °F87 %29.94 in10.0 miCalmOvercast
10:50 PM36.1 °F30.9 °F81 %29.94 in10.0 miNorth (350°)3.5 mphOvercast
11:10 PM36.0 °F31.1 °F82 %29.95 in10.0 miCalmOvercast
11:30 PM36.0 °F31.6 °F84 %29.95 in10.0 miCalmOvercast
11:55 PM35.4 °F32.0 °F87 %29.95 in10.0 miCalmOvercast
Hourly data recorded from KCGS, located 4.18 miles away from Greenbelt, Virginia







STORIES FROM OUR PARTNERS